User: anonymous   Login
Location: Byszew
(52.1813°N, 19.2693°E)
Time: 11:36:23
(UTC+00:00)
Language:

SL-16 R/B - Orbit

View from above orbital plane
View from above orbital plane
View from above satellite
View from above satellite

Ground track
Ground track

The orbit data is extracted from the following two-line orbital elements,

1 31793U 07029B   21133.54131546 -.00000339  00000-0 -15180-3 0  9995
2 31793  70.9758 272.9589 0002211 262.9820 165.9045 14.14445884716319
Epoch (UTC): 13 May 2021 12:59:29
Eccentricity: 0.0002211
inclination: 70.9758°
perigee height: 842 km
apogee height: 846 km
right ascension of ascending node: 272.9589°
argument of perigee: 262.9820°
revolutions per day: 14.14445884
mean anomaly at epoch: 165.9045°
orbit number at epoch: 71631

The dashed part of the orbit path shows where the satellite is in the earth's shadow,  

DLR